Simultaneous Nadir Overpasses (SNOs) Predictions

Prediction of SNOs between GOES-15 and NPP Satellite Orbit:

Table of predicted SNOs for the next 14.0 days since TLE Epoch: 4/27/2024
Index Date Time (GOES-15) GOES-15 Lat,Lon NPP Lat,Lon Distance(km) Time Diff (sec)
1 04/27/2024 21:24:55 0.08, 61.37 0.41, 59.78 180.82 80
2 04/28/2024 21:08:50 0.09, 61.39 -0.58, 64.32 334.21 80
3 04/30/2024 09:28:05 -0.08, 61.44 -0.63, 59.02 275.84 80
4 05/01/2024 09:12:00 -0.09, 61.45 0.36, 63.55 238.93 80
5 05/02/2024 21:31:07 0.07, 61.46 0.77, 58.28 362.39 80
6 05/03/2024 21:15:01 0.08, 61.48 -0.24, 62.81 152.47 80
7 05/05/2024 09:34:17 -0.07, 61.53 -0.95, 57.51 457.59 80
8 05/06/2024 09:18:11 -0.07, 61.55 0.07, 62.05 57.01 80
9 05/08/2024 21:18:31 0.06, 61.59 0.14, 61.33 31.10 80
10 05/09/2024 21:02:26 0.07, 61.62 -0.88, 65.86 483.20 80
